Other Public Products
Issued by NWS Charleston, SC

Current Version | Previous Version | Graphics & Text | Print | Product List | Glossary On
Versions: 1 2 3 4 5 6 7 8 9 10 11 12 13 14 15 16 17 18 19 20 21 22 23 24 25 26 27 28 29 30 31 32 33 34 35 36 37 38 39 40 41 42 43 44 45 46 47 48 49 50
166 FPUS82 KCHS 182312 OPUCHS TEST...KCHS/KSAV Gateway Observations...TEST National Weather Service Charleston SC 700 PM EDT WED APR 18 2018 NOTE: "fair" indicates few or no clouds below 12,000 feet with no significant weather and/or obstructions to visibility. SCZ050-WAZ558-NCZ071-TXZ119-213-PAZ071-DCZ001-FLZ074-172-MI076- NYZ176-178-MAZ016-IL014-TNZ027-NJZ106-GAZ044-MD014-190000- ...Gateway Observations for Charleston International... CITY SKY/WX TMP DP RH WIND PRES REMARKS Chas Airport FAIR 74 55 51 S10 29.93F Seattle PTSUNNY 57 39 51 NW12 30.16F Charlotte FAIR 81 37 20 SW26G33 29.77F Dallas DFW MOSUNNY 77 29 17 N20 30.07R Dallas Love PTSUNNY 77 34 21 NW15G24 30.08R Philladelphia FAIR 54 29 38 SW6 29.79F Wash National FAIR 61 39 44 SE3 29.76F Baltimore FAIR 59 37 44 CALM 29.77F Miami FAIR 77 60 55 E12G18 30.10S Detroit LGT RAIN 39 27 62 E8 29.86R WCI 33 Newark FAIR 53 29 39 W12 29.78F Laguardia FAIR 54 27 35 VRB5 29.77S J F K FAIR 50 33 52 SW14 29.79S Boston Logan MOCLDY 49 29 46 W15 29.70R Ft. Lauderdale FAIR 76 61 59 E10 30.10R Chicago O`Hare DRIZZLE 34 32 92 N12 29.82R FOG WCI 25 Chicago Midway DRIZZLE 35 32 88 N9 29.83R FOG WCI 28 Houston Bush PTSUNNY 78 66 66 NW5 30.01S Houston Hobby CLOUDY 78 66 66 N7 30.00S Nashville FAIR 73 55 53 SW14G25 29.82S Atlanta FAIR 80 45 28 SW15G24 29.91F $$ GAZ044-118-TXZ119-213-NCZ071-DCZ001-MDZ014-506-PAZ021-071-NJZ106- NYZ176-178-MAZ106-OHZ011-021-055-MIZ076-KYZ091-ILZ014-INZ047- MNZ060-ONZ431-190000- ...Gateway Observations for Savannah International... CITY SKY/WX TMP DP RH WIND PRES REMARKS Savannah Arpt FAIR 85 43 22 SW12G21 29.96S Atlanta FAIR 80 45 28 SW15G24 29.91F Charlotte FAIR 81 37 20 SW26G33 29.77F Dallas DFW MOSUNNY 77 29 17 N20 30.07R Houston Bush PTSUNNY 78 66 66 NW5 30.01S Wash National FAIR 61 39 44 SE3 29.76F Wash Dulles FAIR 62 39 42 S7 29.75F Baltimore FAIR 59 37 44 CALM 29.77F Philadelphia FAIR 54 29 38 SW6 29.79F Newark FAIR 53 29 39 W12 29.78F Laguardia FAIR 54 27 35 VRB5 29.77S J F K FAIR 50 33 52 SW14 29.79S Boston MOCLDY 49 29 46 W15 29.70R Pittsburg CLOUDY 53 30 41 S3 29.73S Akron CLOUDY 48 31 51 E5 29.75R Cleveland CLOUDY 38 29 70 NE14 29.80F WCI 30 Cincinnati PTSUNNY 72 54 53 S9 29.60F Columbus CLOUDY 55 38 53 NE13 29.68F Detroit LGT RAIN 39 27 62 E8 29.86R WCI 33 Chicago O`Hare DRIZZLE 34 32 92 N12 29.82R FOG WCI 25 Minneapolis CLOUDY 40 28 62 N8G18 30.04R WCI 34 Indianapolis FAIR 58 43 57 W26G39 29.72R Toronto Canada CLOUDY 37 27 65 W14 29.79F WCI 29 $$

USA.gov is the U.S. government's official web portal to all federal, state and local government web resources and services.